Location: La Fredeussais
(48.1780°N, 1.3980°W)
Time: 04:13:31
(UTC+00:00)

Meteor 2-4 Rocket - Pass Details

Date: 09 May 2021
Orbit: 798 x 909 km, 81.2° (Epoch: 13 June)

Event Time Altitude Azimuth Distance (km) Brightness Sun altitude
Exits shadow 23:09:36 37° 115° (ESE) 1,327 4.4 -23.2°
Maximum altitude 23:10:32 40° 92° (E) 1,267 4.4 -23.2°
Drops below altitude 10° 23:15:46 10° 25° (NNE) 2,495 6.8 -23.4°
Sets 23:18:17 0° 18° (NNE) 3,417 7.8 -23.5°
